Date,TemperatureHighF,TemperatureAvgF,TemperatureLowF,DewpointHighF,DewpointAvgF,DewpointLowF,HumidityHigh,HumidityAvg,HumidityLow,PressureMaxIn,PressureMinIn,WindSpeedMaxMPH,WindSpeedAvgMPH,GustSpeedMaxMPH,PrecipitationSumIn
2014-1-1,48.8,47.6,46.2,45.4,42.4,40.0,89,82,73,30.17,30.07,7,2,15,0.26
2014-1-2,54.5,50.5,47.3,46.0,44.4,42.3,88,80,72,30.12,30.05,15,5,16,0.03
2014-1-3,60.4,50.1,43.0,46.6,43.8,40.4,93,80,54,30.18,30.11,6,0,9,0.00
2014-1-4,56.6,50.1,44.9,45.4,43.8,42.3,92,80,63,30.25,30.16,10,1,10,0.01
2014-1-5,59.4,50.3,42.0,50.0,45.7,39.8,98,85,67,30.21,30.11,8,1,8,0.00
2014-1-6,58.3,54.8,49.4,52.4,50.7,47.5,95,86,75,30.11,30.04,12,2,12,0.01
2014-1-7,59.7,55.7,53.0,51.5,49.6,47.3,88,80,66,30.20,30.09,13,4,20,0.01
2014-1-8,60.7,54.8,48.6,48.6,46.0,43.5,88,73,59,30.20,30.10,13,3,21,0.00
2014-1-9,65.5,56.1,48.9,48.6,44.6,41.7,90,67,46,30.13,30.07,8,1,8,0.00
2014-1-10,62.4,54.6,46.7,51.9,48.5,44.4,94,81,61,30.12,30.02,12,2,12,0.01
2014-1-11,64.3,55.1,47.6,52.4,48.9,45.1,94,81,60,30.17,30.06,7,1,7,0.00
2014-1-12,61.8,54.6,49.1,53.4,49.7,46.9,94,84,69,30.18,30.07,9,1,9,0.00
2014-1-13,58.5,53.3,50.2,50.6,48.7,46.8,93,85,68,30.14,30.07,8,1,8,0.01
2014-1-14,60.4,54.3,50.9,50.9,48.9,46.8,89,82,69,30.08,29.98,7,1,9,0.00
2014-1-15,61.7,57.3,53.2,53.7,51.4,48.8,93,81,65,30.03,29.94,15,4,18,0.00
2014-1-16,63.2,55.9,51.4,55.8,51.8,49.7,96,87,67,29.98,29.90,14,1,16,0.80
2014-1-17,63.4,54.8,47.1,54.1,49.6,45.7,97,84,62,30.14,30.02,9,0,9,0.02
2014-1-20,65.1,60.7,56.8,57.0,53.8,49.9,87,78,69,30.00,29.86,9,2,18,0.02
2014-1-21,66.3,59.8,53.8,55.1,49.2,41.7,91,70,41,29.89,29.77,10,2,20,0.00
2014-1-22,61.3,55.1,49.9,47.3,44.7,41.7,83,69,49,29.98,29.84,6,1,14,0.00
2014-1-23,63.1,56.0,49.4,48.2,44.7,40.0,85,67,43,30.06,29.98,8,1,12,0.00
2014-1-24,58.4,54.4,49.1,52.8,48.0,44.8,88,79,70,30.06,29.53,26,4,26,0.14
2014-1-25,62.2,56.0,51.1,53.5,47.8,44.9,94,75,57,29.57,29.48,31,4,31,1.04
2014-1-26,51.5,49.7,48.3,49.0,47.3,44.3,93,91,84,29.48,29.35,8,3,16,0.76
2014-1-28,51.3,49.6,48.1,49.6,47.2,43.9,96,92,84,29.55,29.36,14,2,14,1.94
2014-1-29,59.6,53.0,47.5,49.5,44.1,40.3,95,73,51,29.96,29.37,9,2,20,0.35
2014-1-30,59.7,51.2,43.0,45.7,42.1,37.6,90,72,48,30.21,29.96,20,1,10,0.00
2014-1-31,54.9,50.6,46.0,46.0,42.2,38.5,83,73,58,30.30,30.20,17,4,20,0.00
2014-2-1,47.6,45.8,44.6,40.1,38.8,37.3,79,76,74,30.30,30.06,24,11,24,0.00
2014-2-2,50.2,48.3,46.2,42.4,40.8,39.0,79,75,67,30.08,29.90,27,12,27,0.00
2014-2-3,51.2,48.5,47.4,40.7,39.2,37.6,74,70,60,30.08,29.95,29,14,29,0.00
2014-2-4,49.4,47.4,44.9,42.4,40.2,38.4,89,76,70,30.20,30.07,17,8,17,0.03
2014-2-5,51.8,47.7,46.5,41.9,40.1,39.3,77,75,68,30.19,30.14,10,2,12,0.00
2014-2-6,55.2,49.4,45.0,47.4,43.1,40.5,94,79,66,30.11,29.94,6,1,12,0.31
2014-2-7,58.5,51.1,48.7,50.3,47.7,46.5,93,88,70,30.10,29.94,6,1,13,0.08
2014-2-11,67.9,57.7,49.2,54.8,50.9,46.7,93,79,62,30.03,29.97,5,0,8,0.00
2014-2-12,67.2,57.5,49.8,55.5,50.6,47.9,96,79,53,30.00,29.83,16,1,16,0.01
2014-2-13,61.7,56.3,49.9,51.4,45.1,41.1,88,67,50,29.87,29.82,5,1,12,0.00
2014-2-14,62.6,54.3,48.2,46.0,43.7,39.9,89,69,45,29.84,29.71,10,1,20,0.00
2014-2-15,59.4,52.6,48.5,44.6,42.1,39.5,79,68,56,29.97,29.76,12,2,12,0.00
2014-2-16,58.4,58.4,58.4,43.7,43.7,43.7,58,58,58,29.96,29.96,7,7,7,0.00
2014-2-17,69.0,57.2,47.2,53.6,47.1,44.0,91,71,45,30.18,30.10,6,1,12,0.00
2014-2-18,72.2,59.8,51.9,52.1,49.6,47.4,91,71,44,30.23,30.16,9,1,9,0.00
2014-2-19,68.3,56.2,48.0,56.7,49.4,45.2,92,79,55,30.24,30.14,8,1,8,0.01
2014-2-22,67.5,62.0,50.9,53.0,51.3,48.7,93,69,54,29.94,29.87,3,1,9,0.01
2014-2-23,65.3,57.4,52.4,52.6,49.8,46.9,88,76,53,29.94,29.87,9,2,16,0.00
2014-2-24,55.1,52.1,48.5,50.2,43.8,39.6,90,74,61,30.00,29.89,18,6,18,0.04
2014-2-25,53.3,49.3,47.3,43.1,41.7,40.9,81,75,64,30.08,29.99,17,4,17,0.00
2014-2-27,53.8,53.2,52.3,48.3,47.8,47.3,84,82,80,30.14,30.13,1,0,4,0.00
2014-2-28,59.5,53.3,49.1,51.7,48.1,45.8,90,83,63,30.14,29.92,7,1,17,0.03
2014-3-1,55.3,53.5,52.1,53.4,51.7,49.8,95,93,88,29.93,29.66,12,2,17,0.50
2014-3-2,61.6,57.1,52.1,50.9,44.3,39.6,88,63,46,29.60,29.48,17,3,20,0.17
2014-3-3,56.2,53.6,50.3,52.7,49.5,46.0,92,86,70,29.58,29.27,16,4,23,0.92
2014-3-4,62.6,54.4,50.1,48.3,45.8,40.1,90,74,46,29.58,29.42,7,3,16,0.00
2014-3-9,49.2,48.2,47.6,42.2,41.1,39.6,79,76,73,30.06,30.02,25,15,25,0.00
2014-3-30,57.8,54.5,52.6,46.0,42.2,39.6,72,64,52,30.08,29.99,16,7,20,0.00
2014-3-31,64.1,55.3,45.8,48.1,40.3,29.8,80,58,30,30.00,29.85,17,3,17,0.00
2014-4-1,70.3,59.0,47.0,53.1,48.6,44.2,92,70,46,29.87,29.80,10,2,10,0.00
2014-4-2,74.3,60.7,52.5,53.6,51.0,49.3,91,73,45,29.89,29.83,10,1,10,0.00
2014-4-6,58.4,57.3,55.2,56.4,55.1,52.6,93,92,91,29.82,29.80,15,1,7,1.98
2014-4-7,63.1,58.1,54.8,54.0,52.1,50.3,94,81,67,29.98,29.79,15,4,15,0.02
2014-4-8,68.0,60.3,53.3,56.1,50.0,46.5,87,70,53,30.05,29.97,15,4,15,0.06
2014-4-9,61.2,55.7,54.0,52.6,51.8,50.9,91,87,72,30.00,29.85,2,0,2,0.01
2014-4-10,71.3,60.4,52.5,56.0,51.9,44.0,84,74,47,29.86,29.74,18,5,18,0.02
2014-4-11,61.7,56.7,52.3,51.1,47.9,44.3,87,73,55,29.96,29.86,18,6,18,0.08
2014-4-12,61.1,59.2,57.1,42.9,39.0,36.8,59,47,42,30.04,30.02,8,2,7,0.00
2014-4-14,56.5,55.6,54.4,51.4,50.9,50.3,86,84,82,29.93,29.91,2,0,2,0.00
2014-4-16,66.8,60.3,55.0,55.4,51.9,48.6,90,74,56,29.80,29.71,24,7,24,0.07
2014-4-17,59.7,54.7,49.1,53.3,48.4,42.7,92,80,56,29.76,29.64,15,4,15,0.06
2014-4-18,64.5,53.3,47.2,47.9,44.1,39.6,91,73,46,29.72,29.60,21,5,21,0.09
2014-4-19,66.5,57.3,48.6,49.4,44.2,40.1,79,63,46,29.91,29.71,20,6,20,0.00
2014-4-20,71.2,61.0,51.2,52.0,49.0,46.6,89,66,45,29.93,29.87,13,3,13,0.00
2014-4-21,62.6,59.5,57.8,57.4,54.3,51.3,89,83,76,29.94,29.89,5,1,5,0.00
2014-4-22,78.7,67.4,57.0,60.3,56.5,52.4,86,69,51,29.98,29.83,14,3,14,0.00
2014-4-23,75.4,67.1,59.5,58.0,54.6,52.0,87,65,48,29.96,29.76,25,6,25,0.00
2014-4-24,75.0,68.7,61.4,59.4,55.9,53.0,82,64,53,29.81,29.70,16,6,16,0.00
2014-4-25,78.8,67.9,60.5,57.3,54.9,51.9,81,65,40,29.74,29.69,15,5,15,0.00
2014-4-26,72.4,64.1,58.9,59.9,57.3,54.2,92,79,57,29.83,29.71,16,6,16,0.04
2014-4-27,60.7,59.0,55.4,57.9,55.5,52.6,92,88,80,29.79,29.67,12,3,12,0.34
2014-4-28,71.0,60.0,52.6,57.4,52.1,48.1,96,77,50,29.74,29.65,21,4,21,0.15
2014-4-29,72.3,63.1,57.1,53.4,50.3,46.4,83,64,43,29.78,29.70,14,4,14,0.00
2014-4-30,70.6,62.2,56.6,49.8,47.3,44.3,71,59,41,29.75,29.67,24,7,24,0.00
2014-5-1,72.0,64.5,55.4,52.4,50.1,47.7,82,61,43,29.78,29.72,14,4,14,0.00
2014-5-2,75.8,65.5,57.2,57.6,53.4,47.0,82,66,37,29.80,29.73,13,4,13,0.00
2014-5-3,73.4,65.2,59.3,59.2,56.1,50.8,88,74,45,29.80,29.65,17,3,17,0.00
2014-5-4,75.3,67.9,59.7,58.3,54.0,47.9,88,63,39,29.67,29.58,13,4,13,0.00
2014-5-5,70.8,62.8,58.8,55.9,52.6,47.6,83,70,45,29.90,29.65,13,2,13,0.08
2014-5-6,67.8,61.7,56.2,54.0,50.0,46.8,78,66,52,30.11,29.89,20,6,20,0.00
2014-5-7,69.7,62.9,56.1,50.2,46.2,38.6,79,56,42,30.10,29.98,18,8,18,0.02
2014-5-8,73.3,64.3,54.4,48.2,43.7,37.5,69,48,38,29.98,29.81,21,6,21,0.00
2014-5-9,71.7,64.6,57.1,50.6,46.0,39.8,69,52,34,29.87,29.77,25,7,25,0.00
2014-5-10,73.8,65.9,59.8,56.6,51.2,44.9,76,60,49,29.93,29.84,12,3,12,0.00
2014-5-11,80.0,69.2,58.5,56.3,54.1,51.4,83,60,39,29.94,29.88,15,3,15,0.00
2014-5-12,77.0,69.7,62.4,56.7,53.1,45.8,81,57,37,29.91,29.85,21,5,21,0.00
2014-5-13,81.9,72.5,64.7,59.4,55.2,52.0,72,56,38,29.94,29.87,13,4,13,0.00
2014-5-14,78.8,70.8,62.6,60.6,53.7,40.0,83,57,29,29.89,29.54,33,10,33,0.00
2014-5-15,71.5,64.8,59.7,48.7,45.6,41.7,63,51,36,29.79,29.66,23,11,23,0.00
2014-5-16,71.2,62.9,57.5,47.9,44.9,41.8,68,53,37,29.88,29.78,22,8,22,0.00
2014-5-17,71.1,63.4,55.2,50.1,47.2,44.6,75,57,40,30.01,29.88,17,6,17,0.00
2014-5-18,75.0,66.1,58.2,52.7,48.5,45.5,68,54,38,30.05,29.98,14,4,14,0.00
2014-5-19,72.8,64.0,58.7,56.4,52.3,48.1,79,66,45,30.05,30.00,14,3,14,0.00
2014-5-20,78.7,68.5,59.1,56.2,52.3,46.4,85,59,35,30.01,29.93,17,4,17,0.00
2014-5-21,76.9,70.3,61.8,51.6,46.7,40.8,66,44,28,29.99,29.94,21,7,21,0.00
2014-5-22,80.0,73.2,63.3,57.8,52.9,47.6,65,49,41,29.96,29.89,23,7,23,0.00
2014-5-23,81.1,74.2,66.6,56.9,51.0,41.7,66,46,29,29.91,29.85,14,6,14,0.00
2014-5-24,84.7,75.5,65.1,57.7,53.1,48.6,63,47,34,29.93,29.86,13,3,13,0.00
2014-5-25,85.5,75.7,67.1,60.0,57.0,54.6,69,53,40,29.95,29.88,17,3,17,0.00
2014-5-26,87.4,78.8,70.0,59.4,56.8,53.6,62,48,37,29.92,29.79,12,3,12,0.00
2014-5-27,87.8,77.8,68.8,61.5,58.3,54.3,74,52,36,29.84,29.76,13,3,13,0.00
2014-5-28,87.4,78.2,69.8,58.9,50.2,36.8,60,40,18,29.80,29.74,16,4,18,0.00
2014-5-29,83.0,74.0,67.9,60.6,56.3,47.0,77,55,33,29.76,29.62,34,8,34,0.00
2014-5-30,75.8,69.6,63.5,60.1,53.6,51.6,76,57,45,29.74,29.68,25,9,25,0.00
2014-5-31,78.8,70.8,65.0,56.4,54.0,48.6,69,56,37,29.80,29.71,22,6,22,0.00
2014-6-1,78.9,71.1,64.9,54.8,52.9,47.5,68,54,34,29.82,29.76,15,5,15,0.00
2014-6-2,77.5,68.8,63.9,54.6,51.7,45.6,68,55,33,29.89,29.80,20,6,20,0.00
2014-6-3,68.8,64.2,59.7,58.2,54.6,49.2,86,71,54,29.91,29.70,21,5,23,0.06
2014-6-4,72.1,65.5,59.4,60.3,57.0,53.7,89,75,61,29.76,29.62,13,3,22,0.05
2014-6-5,79.9,71.6,62.7,58.4,56.1,51.0,81,60,37,29.86,29.75,8,2,14,0.00
2014-6-6,81.8,73.4,63.9,59.8,55.0,49.9,78,55,34,29.88,29.83,10,3,18,0.00
2014-6-7,86.3,75.8,65.6,61.8,57.5,53.7,77,55,36,29.88,29.81,8,2,14,0.00
2014-6-8,80.2,74.6,67.7,60.8,58.7,56.5,75,58,46,29.90,29.81,13,4,20,0.00
2014-6-9,78.6,74.8,70.0,61.9,60.2,57.9,71,61,50,29.89,29.81,20,8,20,0.00
2014-6-10,81.0,75.8,71.4,61.8,59.9,58.1,65,58,49,29.91,29.85,22,8,22,0.00
2014-6-11,88.0,80.3,73.4,62.3,59.7,57.3,63,50,36,29.90,29.85,18,6,18,0.00
2014-6-12,84.8,78.7,73.2,62.4,57.0,52.6,66,48,35,29.95,29.87,17,6,17,0.00
2014-6-13,88.0,79.6,72.6,62.2,56.3,53.1,62,46,35,29.93,29.76,20,5,20,0.00
2014-6-14,89.5,80.2,70.9,64.0,60.1,52.4,67,51,31,29.79,29.69,12,3,12,0.00
2014-6-15,87.6,76.6,69.3,66.3,62.5,58.0,82,63,41,29.86,29.74,23,3,23,0.06
2014-6-16,87.1,77.3,67.2,63.4,60.7,56.8,82,58,37,29.92,29.85,13,3,13,0.00
2014-6-17,90.6,79.6,69.9,66.5,63.3,57.6,79,59,34,29.92,29.87,13,3,13,0.00
2014-6-18,89.9,80.4,72.6,67.2,62.6,56.2,77,56,34,29.91,29.78,12,3,12,0.00
2014-6-19,90.0,80.4,72.1,66.7,57.5,45.8,79,49,22,29.81,29.66,18,5,18,0.09
2014-6-20,81.4,75.0,69.8,62.8,57.2,52.7,75,55,41,29.77,29.66,15,7,15,0.02
2014-6-21,85.4,76.3,66.7,63.3,58.7,54.4,81,56,37,29.92,29.76,15,4,15,0.01
2014-6-22,83.5,75.9,71.4,67.2,59.6,51.4,79,57,44,30.07,29.92,18,5,18,0.12
2014-6-23,85.7,76.4,66.8,61.0,56.4,51.6,79,52,31,30.10,30.04,18,4,18,0.00
2014-6-24,90.7,81.4,69.5,62.3,57.0,51.9,65,45,32,30.02,29.90,12,3,14,0.00
2014-6-25,96.4,84.4,73.8,62.9,58.0,50.9,63,43,22,29.91,29.81,12,4,12,0.00
2014-6-26,100.1,89.1,76.6,63.5,53.0,41.6,62,33,14,29.86,29.79,20,5,20,0.00
2014-6-27,99.6,89.1,77.6,62.6,54.3,45.8,54,34,17,29.86,29.72,16,4,16,0.00
2014-6-28,85.0,79.6,74.0,65.7,60.3,54.8,68,52,43,29.97,29.75,33,12,33,0.00
2014-6-29,85.5,78.1,71.0,59.3,53.6,45.3,64,45,29,29.98,29.88,18,7,18,0.00
2014-6-30,89.3,78.8,71.1,65.5,57.2,48.6,64,48,33,29.91,29.79,21,4,21,0.00
2014-7-1,93.0,83.2,73.8,62.9,57.8,50.5,66,44,24,29.97,29.82,20,6,20,0.00
2014-7-2,87.7,81.1,73.1,63.4,58.4,52.8,58,46,40,30.03,29.97,22,7,22,0.00
2014-7-3,89.1,81.8,74.5,62.4,59.6,55.1,58,47,39,30.03,29.89,16,7,16,0.00
2014-7-4,80.9,77.1,72.2,61.7,54.9,46.8,60,47,32,29.94,29.90,24,11,24,0.00
2014-7-5,82.9,76.1,69.6,58.3,53.6,48.7,67,47,32,29.94,29.86,26,12,26,0.00
2014-7-6,89.2,80.2,71.5,62.3,52.8,46.9,59,40,26,29.88,29.82,20,6,20,0.00
2014-7-7,90.6,82.4,73.3,61.3,55.5,49.4,60,40,33,29.92,29.86,20,5,20,0.00
2014-7-8,94.7,84.1,75.2,66.0,58.0,46.3,52,42,30,29.92,29.79,14,4,14,0.00
2014-7-9,94.8,85.8,77.1,61.8,59.3,52.0,57,42,25,29.80,29.61,22,6,22,0.00
2014-7-10,93.0,83.8,75.9,61.4,57.2,42.7,57,42,21,29.68,29.61,17,5,17,0.00
2014-7-11,90.2,84.1,78.1,62.0,57.6,54.0,49,41,30,29.65,29.57,20,6,20,0.00
2014-7-12,87.4,79.1,71.7,59.9,55.4,47.3,59,45,27,29.83,29.65,25,8,25,0.00
2014-7-13,89.8,81.0,72.1,62.3,58.9,55.8,63,48,34,29.86,29.82,15,4,15,0.00
2014-7-14,87.8,78.2,73.6,62.3,59.2,55.3,67,53,34,29.84,29.77,16,4,16,0.00
2014-7-15,85.9,77.3,70.9,63.7,60.9,57.6,70,58,44,29.78,29.70,19,4,19,0.00
2014-7-16,81.8,74.8,70.6,64.4,61.0,57.9,73,63,45,29.86,29.74,15,4,15,0.00
2014-7-17,81.5,76.2,69.7,66.7,63.2,60.7,82,65,51,29.87,29.82,12,4,12,0.00
2014-7-18,88.7,79.4,69.5,65.6,61.9,56.4,81,57,36,29.85,29.76,12,3,12,0.00
2014-7-19,86.3,77.2,72.8,69.3,64.8,60.4,83,67,46,29.84,29.78,25,3,25,0.05
2014-7-20,86.7,79.3,71.2,68.1,61.8,57.7,82,57,39,29.86,29.81,20,6,20,0.00
2014-7-21,91.1,82.8,73.5,66.7,60.7,57.2,67,48,35,29.85,29.75,14,5,14,0.00
2014-7-22,93.2,83.7,74.9,69.7,64.7,60.6,71,54,36,29.78,29.63,13,3,13,0.00
2014-7-23,88.7,81.6,74.4,67.8,63.2,58.6,73,55,38,29.69,29.62,15,6,15,0.00
2014-7-24,86.8,79.9,75.1,70.0,64.7,58.6,78,60,46,29.77,29.65,12,5,12,0.00
2014-7-25,88.5,81.0,73.4,70.0,64.7,60.9,82,59,43,29.80,29.72,17,5,17,0.00
2014-7-26,90.3,82.4,75.1,66.1,63.4,60.5,67,53,38,29.82,29.75,17,5,17,0.00
2014-7-27,94.3,84.4,74.9,71.3,64.0,58.7,68,51,35,29.86,29.82,12,3,12,0.00
2014-7-28,94.2,85.1,75.8,69.1,64.2,56.0,71,52,29,29.85,29.72,13,3,15,0.00
2014-7-29,94.7,84.6,77.9,71.7,65.9,61.1,74,55,39,29.77,29.69,15,4,15,0.00
2014-7-30,95.8,85.3,76.6,74.2,69.0,63.6,76,60,42,29.78,29.74,15,4,15,0.00
2014-7-31,95.0,85.6,78.2,70.8,66.5,54.0,74,55,27,29.76,29.55,18,4,18,0.00
2014-8-1,91.3,83.8,76.8,66.0,61.6,55.1,62,48,30,29.63,29.56,16,7,16,0.00
2014-8-2,87.8,80.4,75.7,67.1,62.3,57.7,71,55,37,29.77,29.62,14,4,14,0.00
2014-8-3,92.8,82.8,74.3,70.3,63.9,59.5,71,54,34,29.80,29.75,17,4,17,0.00
2014-8-4,96.3,86.2,77.4,72.0,64.9,53.8,70,51,26,29.78,29.68,21,4,21,0.00
2014-8-5,91.1,84.5,77.6,66.1,64.1,53.0,67,51,34,29.71,29.67,18,3,18,0.00
2014-8-6,93.5,81.2,72.4,69.4,62.5,59.8,74,55,34,29.67,29.59,18,6,18,0.04
2014-8-7,82.2,77.4,69.4,64.9,62.2,58.7,76,60,50,29.77,29.62,13,3,14,0.03
2014-8-8,75.3,73.9,73.2,64.9,64.4,64.0,74,72,71,29.78,29.77,2,0,2,0.00
2014-8-9,90.1,81.5,71.3,68.5,63.8,56.2,80,57,33,29.90,29.85,12,2,18,0.00
2014-8-10,89.0,82.9,74.7,66.5,60.9,56.9,73,49,36,29.91,29.87,17,4,17,0.00
2014-8-11,80.3,80.3,80.3,56.4,56.4,56.4,44,44,44,29.84,29.84,12,12,12,0.00
2014-9-5,82.3,77.1,72.8,67.9,65.9,56.4,79,69,44,29.84,29.67,18,5,18,0.00
2014-9-6,85.0,75.6,69.3,69.7,66.7,62.7,90,75,50,29.74,29.66,20,3,20,0.96
2014-9-7,82.5,73.6,70.0,69.8,66.2,62.3,93,79,54,29.84,29.70,21,3,21,0.04
2014-9-8,78.0,72.5,67.9,66.2,64.6,62.6,84,76,65,29.93,29.83,14,4,14,0.00
2014-9-9,81.4,74.1,70.0,67.1,63.8,60.2,85,71,50,29.93,29.86,15,3,15,0.14
2014-9-10,82.8,74.4,65.7,65.2,59.9,52.8,90,63,41,29.90,29.83,13,3,13,0.02
2014-9-11,85.3,75.4,65.5,61.7,57.0,51.3,73,55,33,29.90,29.84,12,2,12,0.00
2014-9-12,88.6,78.6,69.6,68.7,64.8,53.8,81,64,34,29.94,29.86,14,3,14,0.00
2014-9-13,86.8,78.0,70.1,68.2,65.1,60.8,86,66,44,29.94,29.87,14,3,14,0.00
2014-9-14,84.2,77.5,69.8,66.4,63.3,60.1,76,63,48,29.87,29.83,14,2,14,0.00
2014-9-15,84.3,74.2,66.5,68.6,65.4,61.0,92,75,50,29.93,29.81,24,2,24,1.71
2014-9-16,83.8,72.1,67.3,67.4,64.9,62.0,93,79,52,29.84,29.80,23,3,23,1.62
2014-9-17,79.2,70.9,65.2,63.6,61.2,57.5,92,73,52,29.93,29.81,18,5,18,0.00
2014-9-18,76.1,71.2,66.1,60.5,58.3,54.6,77,64,54,30.07,29.92,15,5,15,0.00
2014-9-19,77.0,70.7,66.8,60.4,57.9,55.8,77,65,52,30.16,30.07,15,4,15,0.00
2014-9-20,83.1,72.6,62.5,61.4,57.8,52.9,78,61,40,30.14,29.99,13,2,13,0.00
2014-9-21,89.5,76.8,68.5,69.5,65.1,60.8,85,69,44,30.00,29.83,14,2,14,0.00
2014-9-22,87.9,79.7,70.8,68.7,66.4,63.2,88,65,50,29.87,29.72,17,4,17,0.00
2014-9-23,90.3,81.6,71.7,67.9,62.8,54.7,79,55,34,29.88,29.67,23,6,23,0.00
2014-9-24,76.9,69.2,66.1,57.1,53.8,50.1,71,58,46,30.02,29.88,21,9,21,0.00
2014-9-25,82.8,72.8,64.8,64.3,60.9,56.6,83,67,47,30.00,29.92,12,4,12,0.00
2014-9-26,80.5,70.7,64.6,66.6,61.2,51.9,89,73,51,29.93,29.74,24,5,24,0.13
2014-9-27,66.0,62.2,59.6,54.1,50.6,46.7,77,66,51,30.04,29.81,23,7,23,0.01
2014-9-28,68.6,62.7,58.2,55.5,51.6,46.9,89,68,48,30.24,30.04,20,5,20,0.12
2014-9-29,71.0,65.3,61.6,52.0,49.6,45.9,70,57,45,30.31,30.23,26,8,26,0.00
2014-9-30,75.6,67.2,59.7,53.9,51.3,47.8,74,58,41,30.26,30.13,20,6,20,0.00
2014-10-1,77.8,68.1,57.6,52.5,48.2,39.8,69,50,35,30.15,30.06,18,6,18,0.00
2014-10-2,76.7,69.7,65.0,58.5,53.3,43.1,74,57,41,30.11,30.06,22,8,22,0.00
2014-10-3,70.5,66.3,63.3,57.3,54.7,49.1,77,66,55,30.10,30.03,21,8,21,0.00
2014-10-4,67.6,63.1,58.2,53.7,51.0,48.1,72,65,56,30.07,30.01,16,5,18,0.00
2014-10-5,72.6,64.4,57.9,54.5,52.0,48.8,75,65,48,30.10,30.00,15,4,15,0.00
2014-10-6,74.5,66.8,62.3,61.0,57.7,53.3,83,73,59,30.12,30.05,15,4,15,0.00
2014-10-7,80.3,67.9,62.7,64.4,61.2,58.2,91,80,53,30.13,30.05,17,2,17,0.20
2014-10-8,74.7,66.8,60.2,61.1,59.0,56.6,92,77,54,30.11,30.01,14,3,14,0.01
2014-10-9,74.0,68.1,64.7,59.5,56.4,49.1,82,67,53,30.07,30.02,23,9,23,0.00
2014-10-10,73.9,67.0,61.6,56.2,52.0,47.4,76,59,47,30.06,30.00,21,7,21,0.00
2014-10-11,74.9,67.7,61.2,56.0,51.0,46.8,77,56,42,30.05,29.96,15,4,20,0.00
2014-10-12,78.4,66.9,59.6,57.1,52.0,46.4,82,60,40,30.02,29.95,13,2,13,0.00
2014-10-13,77.6,67.5,58.6,57.4,55.5,54.2,89,67,45,30.01,29.95,7,1,12,0.00
2014-10-15,80.2,72.9,67.8,66.0,65.1,63.2,90,77,57,29.98,29.92,8,3,8,0.00
2014-10-16,83.4,74.4,66.2,67.3,61.5,54.2,94,68,41,29.99,29.95,16,4,16,0.01
2014-10-17,81.4,75.5,72.0,64.5,61.2,57.1,73,62,44,30.00,29.93,22,6,22,0.00
2014-10-18,86.1,76.3,69.4,62.8,56.4,45.0,78,52,35,30.10,29.93,20,5,20,0.00
2014-10-19,69.7,64.0,59.2,52.9,47.1,44.0,66,55,45,30.27,30.10,24,10,24,0.00
2014-10-20,71.8,62.8,56.2,54.0,50.2,45.4,82,64,45,30.25,29.98,15,4,15,0.00
2014-10-21,74.4,64.2,54.4,55.5,51.9,47.8,85,66,40,29.98,29.84,12,1,10,0.00
2014-10-22,74.4,67.6,57.8,63.8,56.5,50.8,89,69,46,29.84,29.53,22,4,24,0.06
2014-10-23,70.8,65.2,57.2,65.1,54.8,40.2,92,70,47,29.76,29.45,31,8,31,0.93
2014-10-24,64.3,59.3,54.5,57.6,53.5,45.4,92,81,65,29.77,29.52,30,8,30,1.10
2014-10-25,62.1,56.8,52.0,53.0,50.6,47.6,93,80,62,29.91,29.63,10,1,10,0.02
2014-10-26,60.5,56.4,52.2,51.9,49.7,48.1,88,78,68,30.11,29.91,20,9,20,0.02
2014-10-27,59.8,56.4,52.5,51.1,49.0,47.4,86,76,69,30.17,30.11,16,8,16,0.00
2014-10-28,58.1,56.4,55.1,50.6,49.7,47.9,81,78,74,30.15,30.06,18,8,18,0.00
2014-10-29,63.1,59.1,56.0,54.2,52.9,50.3,87,80,70,30.07,29.99,14,5,14,0.03
2014-10-30,68.3,60.6,52.0,53.7,50.9,48.1,93,71,50,30.05,30.00,10,3,10,0.00
2014-10-31,57.4,55.3,54.2,51.2,48.2,44.1,85,77,67,30.08,30.03,21,8,21,0.00
2014-11-1,57.9,55.3,53.6,45.3,43.8,42.1,72,65,58,30.15,30.09,25,11,25,0.00
2014-11-2,59.9,56.3,53.2,47.6,45.8,42.2,75,68,60,30.16,30.08,21,8,21,0.00
2014-11-3,61.8,56.9,52.7,47.1,45.7,42.2,79,67,56,30.19,30.12,17,8,17,0.00
2014-11-4,65.7,57.1,49.5,50.0,48.7,45.2,88,74,51,30.17,30.09,13,3,13,0.00
2014-11-5,63.4,59.7,53.8,56.7,54.4,50.0,87,83,75,30.20,30.10,12,4,12,0.00
2014-11-6,70.8,64.9,55.6,59.5,57.5,53.3,93,78,63,30.23,30.16,12,3,12,0.00
2014-11-7,67.2,64.3,59.5,60.2,59.0,56.3,93,83,75,30.19,29.96,17,6,17,0.14
2014-11-8,63.0,59.4,58.0,60.2,57.3,56.3,95,93,89,29.96,29.82,22,5,22,1.38
2014-11-9,70.7,61.1,53.9,59.0,56.1,52.5,99,84,60,30.06,29.89,7,1,12,1.38
2014-11-10,68.6,62.0,54.3,58.8,56.5,52.6,96,83,66,30.15,30.06,12,2,12,0.01
2014-11-11,67.0,60.5,55.6,58.2,55.6,53.4,95,84,67,30.17,30.06,12,4,12,0.01
2014-11-12,64.3,60.7,56.0,57.0,55.6,52.8,90,83,74,30.06,29.86,17,6,17,0.01
2014-11-13,71.4,65.1,58.1,61.6,59.1,56.4,94,82,60,29.84,29.72,8,2,8,0.17
2014-11-14,63.9,59.1,55.4,59.3,55.3,50.4,94,87,74,29.84,29.72,17,2,17,0.60
2014-11-15,60.9,58.9,57.5,55.7,54.9,54.1,93,86,80,29.94,29.83,15,5,15,0.06
2014-11-16,64.0,58.0,53.0,54.6,52.7,50.3,92,83,67,30.01,29.94,6,1,9,0.00
2014-11-17,72.6,64.9,57.3,62.6,58.7,53.8,92,81,63,30.00,29.91,6,1,12,0.00
2014-11-18,71.9,63.6,54.9,60.4,57.4,53.2,96,81,59,30.06,30.00,5,0,9,0.01
2014-11-19,71.1,66.2,60.0,63.5,60.8,55.9,95,83,75,30.03,29.92,18,6,21,0.00
2014-11-20,66.2,61.1,53.5,50.2,44.3,40.8,71,55,40,30.03,29.95,13,4,13,0.00
2014-11-21,61.8,56.6,51.7,43.5,40.9,38.4,69,56,43,30.09,30.01,17,4,17,0.00
2014-11-22,62.4,56.5,51.7,43.6,40.9,38.6,67,56,43,30.22,30.09,18,4,18,0.00
2014-11-23,52.7,51.8,51.1,47.3,45.4,43.6,84,79,73,30.25,30.20,14,6,14,0.00
2014-11-24,54.1,52.1,49.9,44.1,43.1,42.6,77,71,66,30.22,30.14,14,4,14,0.00
2014-11-25,52.9,49.1,45.6,42.1,40.4,38.4,83,72,60,30.20,30.14,23,7,23,0.00
2014-11-26,50.2,48.6,45.3,44.4,42.0,38.8,86,78,73,30.14,30.09,12,5,12,0.02
2014-11-27,52.4,50.5,48.6,48.1,45.4,40.3,93,83,73,30.14,30.08,12,4,12,0.05
2014-11-28,55.9,54.3,50.7,52.3,50.5,47.9,90,87,82,30.22,30.13,12,3,12,0.02
2014-11-29,66.7,62.4,56.9,59.5,57.9,54.3,93,86,76,30.22,30.10,10,3,10,0.02
2014-11-30,66.2,60.1,54.4,60.7,55.9,52.4,95,86,69,30.12,29.97,7,1,7,0.01
2014-12-1,63.1,58.8,53.7,58.0,55.8,51.8,96,90,83,30.03,29.94,16,4,16,0.01
2014-12-2,68.9,64.8,58.8,59.3,56.6,53.8,92,75,61,29.94,29.81,20,7,20,0.06
2014-12-3,69.3,66.1,61.3,62.0,59.9,56.5,91,81,73,29.95,29.84,25,9,25,0.14
2014-12-4,69.3,62.0,57.0,59.7,56.1,51.7,96,82,55,30.07,29.96,9,3,9,0.95
2014-12-5,63.4,60.2,58.0,57.1,55.9,54.5,94,86,79,30.10,30.01,12,5,12,0.95
2014-12-6,68.3,61.3,55.2,59.6,55.6,51.3,95,82,60,30.02,29.90,12,4,12,0.12
2014-12-7,64.9,61.5,55.3,55.4,53.3,51.1,87,75,63,29.95,29.84,10,2,10,0.14
2014-12-8,63.5,57.1,52.8,54.8,52.1,49.6,95,84,67,29.84,29.54,28,6,28,1.36
2014-12-9,58.8,55.4,50.9,51.9,49.2,47.3,89,80,69,29.75,29.56,12,1,12,1.37
2014-12-10,55.7,53.7,51.0,51.3,50.0,47.1,92,87,76,30.04,29.74,12,4,12,0.15
2014-12-11,58.0,54.8,52.4,54.6,52.3,50.1,94,91,87,30.03,29.79,20,3,20,1.21
2014-12-12,54.9,53.7,51.9,52.5,50.8,48.9,94,90,83,30.08,29.68,22,9,27,1.44
2014-12-13,60.3,54.2,48.0,48.1,46.1,44.3,88,75,62,30.23,30.18,16,4,16,1.44
2014-12-14,61.9,51.3,43.6,48.7,44.3,41.0,94,79,48,30.25,30.19,5,0,5,0.00
2014-12-15,57.4,51.5,47.1,47.6,46.4,44.7,93,83,68,30.27,30.22,8,2,8,0.01
2014-12-16,60.0,55.3,50.3,55.1,50.8,47.1,92,85,71,30.22,30.05,20,2,20,0.01
2014-12-17,60.5,57.5,52.8,57.1,53.9,51.2,95,88,77,30.05,29.92,22,6,22,0.75
2014-12-18,60.4,53.3,48.9,54.5,49.3,46.8,97,87,69,30.07,29.92,12,1,12,0.01
2014-12-19,63.2,52.2,46.0,49.1,46.7,43.6,94,83,56,30.17,30.07,8,1,8,0.01
2014-12-20,60.7,56.5,49.6,51.8,49.4,47.0,95,78,66,30.17,30.07,12,5,12,0.01
2014-12-21,65.0,53.5,46.6,51.6,45.0,33.5,95,75,45,30.26,30.01,30,5,30,0.01
2014-12-22,53.0,48.4,43.8,38.2,35.1,32.2,80,61,46,30.38,30.28,13,3,13,0.01
2014-12-23,62.3,53.3,41.2,43.5,40.6,37.6,90,64,42,30.28,30.20,10,2,10,0.00
2014-12-24,50.5,47.2,47.0,42.2,42.0,41.6,83,82,81,30.24,30.23,0,0,0,0.00
2014-12-25,63.4,57.3,45.8,53.1,50.0,44.2,95,77,64,30.16,30.01,10,4,10,0.00
2014-12-26,59.8,55.2,51.7,50.3,49.1,48.1,88,80,66,29.98,29.83,8,1,8,0.00
2014-12-27,56.2,51.2,44.0,49.5,39.2,34.6,91,64,50,29.90,29.77,12,3,12,0.00
2014-12-28,57.2,54.2,43.4,54.5,46.8,38.6,91,76,57,29.90,29.60,27,8,27,0.06
2014-12-29,60.1,55.5,49.6,48.8,44.2,39.4,80,66,53,29.86,29.56,16,6,16,0.07
2014-12-30,38.9,37.6,36.4,35.0,33.3,30.6,91,84,74,29.90,29.79,28,12,28,0.40
2014-12-31,39.7,38.9,36.4,37.2,36.0,34.0,92,89,88,29.90,29.81,29,14,33,0.48
2015-1-1,39.9,39.3,38.4,37.2,34.2,30.0,92,82,68,30.27,29.87,31,12,31,0.06
2015-1-2,43.9,40.0,35.8,31.9,29.2,26.4,72,65,57,30.30,30.26,20,6,20,0.00